TimeEDT,TemperatureF,Dew PointF,Humidity,Sea Level PressureIn,VisibilityMPH,Wind Direction,Wind SpeedMPH,Gust SpeedMPH,PrecipitationIn,Events,Conditions,WindDirDegrees,DateUTC
12:54 AM,71.1,70.0,96,30.20,10.0,Calm,Calm,-,N/A,,Clear,0,2013-07-04 04:54:00
1:54 AM,70.0,69.1,97,30.20,8.0,Calm,Calm,-,N/A,,Clear,0,2013-07-04 05:54:00
2:54 AM,70.0,69.1,97,30.19,9.0,South,3.5,-,N/A,,Clear,190,2013-07-04 06:54:00
3:54 AM,72.0,70.0,93,30.19,9.0,Calm,Calm,-,N/A,,Partly Cloudy,0,2013-07-04 07:54:00
4:13 AM,71.6,71.6,100,30.20,8.0,Calm,Calm,-,N/A,,Mostly Cloudy,0,2013-07-04 08:13:00
4:54 AM,71.1,69.1,93,30.20,9.0,Calm,Calm,-,0.00,,Overcast,0,2013-07-04 08:54:00
5:33 AM,71.6,69.8,94,30.21,1.8,Calm,Calm,-,N/A,,Scattered Clouds,0,2013-07-04 09:33:00
5:44 AM,71.6,69.8,94,30.21,4.0,Calm,Calm,-,N/A,,Partly Cloudy,0,2013-07-04 09:44:00
5:54 AM,71.1,69.1,93,30.21,7.0,Calm,Calm,-,N/A,,Partly Cloudy,0,2013-07-04 09:54:00
6:27 AM,71.6,69.8,94,30.22,7.0,Calm,Calm,-,N/A,,Scattered Clouds,0,2013-07-04 10:27:00
6:47 AM,73.4,71.6,94,30.22,8.0,Calm,Calm,-,N/A,,Mostly Cloudy,0,2013-07-04 10:47:00
6:54 AM,73.9,72.0,93,30.22,8.0,SW,3.5,-,N/A,,Mostly Cloudy,220,2013-07-04 10:54:00
7:13 AM,75.2,73.4,94,30.23,8.0,SW,5.8,-,N/A,,Mostly Cloudy,220,2013-07-04 11:13:00
7:32 AM,75.2,73.4,94,30.23,9.0,SW,6.9,-,N/A,,Scattered Clouds,230,2013-07-04 11:32:00
7:44 AM,77.0,73.4,89,30.24,10.0,SW,6.9,-,N/A,,Mostly Cloudy,220,2013-07-04 11:44:00
7:52 AM,77.0,73.4,89,30.24,10.0,SW,5.8,-,N/A,,Partly Cloudy,230,2013-07-04 11:52:00
7:54 AM,78.1,73.0,84,30.23,10.0,SSW,5.8,-,N/A,,Scattered Clouds,210,2013-07-04 11:54:00
8:07 AM,78.8,73.4,83,30.24,10.0,SW,9.2,-,N/A,,Mostly Cloudy,230,2013-07-04 12:07:00
8:54 AM,79.0,72.0,79,30.23,10.0,SSW,8.1,-,N/A,,Mostly Cloudy,210,2013-07-04 12:54:00
9:15 AM,80.6,71.6,74,30.24,10.0,SW,9.2,-,N/A,,Scattered Clouds,230,2013-07-04 13:15:00
9:28 AM,80.6,71.6,74,30.24,10.0,SSW,9.2,-,N/A,,Mostly Cloudy,210,2013-07-04 13:28:00
9:54 AM,82.0,72.0,71,30.23,10.0,SW,11.5,-,N/A,,Mostly Cloudy,220,2013-07-04 13:54:00
10:01 AM,82.4,73.4,74,30.23,10.0,SSW,12.7,-,N/A,,Mostly Cloudy,210,2013-07-04 14:01:00
10:54 AM,84.0,73.0,69,30.22,10.0,SSW,9.2,-,N/A,,Mostly Cloudy,210,2013-07-04 14:54:00
11:54 AM,86.0,73.0,65,30.21,10.0,SSW,11.5,19.6,N/A,,Partly Cloudy,210,2013-07-04 15:54:00
12:54 PM,87.1,73.0,63,30.20,10.0,SW,11.5,-,N/A,,Partly Cloudy,220,2013-07-04 16:54:00
1:54 PM,87.1,72.0,61,30.18,10.0,South,13.8,23.0,N/A,,Partly Cloudy,190,2013-07-04 17:54:00
2:54 PM,88.0,72.0,59,30.17,10.0,SSW,13.8,21.9,N/A,,Clear,210,2013-07-04 18:54:00
3:54 PM,88.0,71.1,57,30.16,10.0,SW,15.0,23.0,N/A,,Clear,220,2013-07-04 19:54:00
4:54 PM,88.0,72.0,59,30.14,10.0,SW,16.1,21.9,N/A,,Clear,220,2013-07-04 20:54:00
5:54 PM,87.1,73.0,63,30.13,10.0,SW,12.7,19.6,N/A,,Clear,230,2013-07-04 21:54:00
6:54 PM,86.0,72.0,63,30.14,10.0,SW,9.2,-,N/A,,Clear,230,2013-07-04 22:54:00
7:54 PM,82.9,73.0,72,30.14,10.0,WSW,5.8,-,N/A,,Clear,240,2013-07-04 23:54:00
8:54 PM,79.0,72.0,79,30.15,10.0,SW,4.6,-,N/A,,Clear,220,2013-07-05 00:54:00
9:54 PM,78.1,72.0,81,30.16,10.0,SSW,3.5,-,N/A,,Clear,210,2013-07-05 01:54:00
10:54 PM,77.0,72.0,84,30.17,10.0,SW,6.9,-,N/A,,Clear,230,2013-07-05 02:54:00
11:54 PM,77.0,72.0,84,30.19,10.0,SW,5.8,-,N/A,,Clear,230,2013-07-05 03:54:00